Starlink 34560

operational
NORAD ID: 64700 Int'l Des: 2025-142 Owner: SPXS Country: US Constellation: starlink
LEOCIRCULAR

Über Starlink 34560

Beschreibung wird geladen...

Live-Position

3D-Globus wird geladen...

Nächste Überflüge

Höhenverlauf

Altitude vs Time

uPlot chart will show altitude changes over time

Zweizeiliger Elementsatz

1 64700U 25142E 26063.12472972 .00010673 00000-0 95861-3 0 9991
2 64700 70.0023 328.6020 0002390 282.4258 77.6632 14.95908078 38606
Epoch: 4. März 2026 • Age: 22 hours

Aktueller Status

Höhe 584.3 km
Geschwindigkeit 7.57 km/s
Subsatellitenpunkt -14.86°S, 174.32°W
Startdatum 28. Juni 2025
Alter 0.6 years
Typ internet

Technische Details

Klassifizierung Payload
Masse 575.00 kg
Trockenmasse 530.00 kg
Gesamtmasse 575.00 kg
Länge 0.30 m
Durchmesser 4.10 m
Spannweite 29.00 m
Form Box + pan
Hersteller SPXS
Bus-Typ Starlink V2MO
Phasenstatus In Orbit
Besitzer/Staat SPXS/US

Große Konstellationen

Loading constellations...